Location: Grunertshofen
(48.1867°N, 11.0866°E)
Time: 15:16:40
(UTC+00:00)

Cosmos 1980 Rocket - Pass Details

Date: 11 December 2025
Orbit: 826 x 850 km, 71.0° (Epoch: 18 May)

Event Time Altitude Azimuth Distance (km) Brightness Sun altitude
Rises 18:16:48 0° 222° (SW) 3,391 6.0 -28.1°
Reaches altitude 10° 18:19:19 10° 228° (SW) 2,457 5.2 -28.5°
Maximum altitude 18:24:48 52° 304° (WNW) 1,042 2.8 -29.4°
Enters shadow 18:26:02 44° 344° (NNW) 1,157 2.9 -29.6°
